SA280 FCBB-FAOR

Flight info

Callsign SA280
Flight time N/A
Altitude 39000
Route KSA4B KSA UB733 BUGRO UM998 GBV UL435 ETOSA UZ10 PEDIL UQ19 AVAGO AVAGO1D
Aircraft A343/H-SDE2E3FGHIJ4J5M1RWXY/LB1D1

Departure

Time 2026-05-06 01:30
Airport Maya-Maya International Airport (FCBB)

Arrival

Time N/A
Airport O.R. Tambo International Airport (FAOR)
Time Latitude Longitude Altitude Speed Heading
2026-05-06 01:11 -4.25920 15.24876 1039 ft 0 kts 148°
2026-05-06 01:24 -4.25921 15.24876 1066 ft 0 kts 148°
2026-05-06 01:24 -4.25926 15.24880 1066 ft 1 kts 148°
2026-05-06 01:24 -4.25912 15.24871 1038 ft 2 kts 129°
2026-05-06 01:24 -4.25898 15.24860 1038 ft 3 kts 159°
2026-05-06 01:25 -4.25882 15.24850 1038 ft 3 kts 117°
2026-05-06 01:25 -4.25877 15.24833 1038 ft 3 kts 76°
2026-05-06 01:25 -4.25879 15.24824 1038 ft 0 kts 57°
2026-05-06 01:25 -4.25855 15.24852 1039 ft 12 kts 48°
2026-05-06 01:26 -4.25755 15.24939 1039 ft 25 kts 29°
2026-05-06 01:26 -4.25601 15.25078 1041 ft 36 kts 48°
2026-05-06 01:26 -4.25424 15.25298 1042 ft 42 kts 50°
2026-05-06 01:26 -4.25275 15.25347 1043 ft 21 kts 328°
2026-05-06 01:27 -4.25138 15.25222 1043 ft 32 kts 316°
2026-05-06 01:27 -4.24951 15.25059 1043 ft 28 kts 313°
2026-05-06 01:27 -4.24963 15.24969 1042 ft 10 kts 213°
2026-05-06 01:27 -4.25109 15.24934 1041 ft 35 kts 191°
2026-05-06 01:28 -4.25380 15.24781 1038 ft 53 kts 227°
2026-05-06 01:28 -4.25632 15.24515 1037 ft 52 kts 229°
2026-05-06 01:28 -4.25862 15.24272 1036 ft 31 kts 233°
2026-05-06 01:28 -4.25878 15.24196 1035 ft 1 kts 293°
2026-05-06 01:29 -4.25854 15.24203 1036 ft 9 kts 34°
2026-05-06 01:29 -4.25723 15.24344 1038 ft 45 kts 52°
2026-05-06 01:29 -4.25408 15.24723 1038 ft 97 kts 50°
2026-05-06 01:29 -4.24873 15.25363 1046 ft 141 kts 50°
2026-05-06 01:30 -4.24157 15.26214 1112 ft 173 kts 50°
2026-05-06 01:30 -4.23372 15.27172 1528 ft 181 kts 50°
2026-05-06 01:30 -4.22840 15.28340 1891 ft 198 kts 90°
2026-05-06 01:30 -4.23309 15.29660 2250 ft 215 kts 133°
2026-05-06 01:31 -4.24496 15.30692 2560 ft 238 kts 146°
2026-05-06 01:31 -4.25929 15.31639 3063 ft 253 kts 150°
2026-05-06 01:31 -4.27443 15.32574 3801 ft 258 kts 150°
2026-05-06 01:31 -4.28970 15.33550 4586 ft 262 kts 148°
2026-05-06 01:32 -4.30489 15.34578 5350 ft 265 kts 147°
2026-05-06 01:32 -4.31989 15.35646 6106 ft 269 kts 145°
2026-05-06 01:32 -4.33506 15.36764 6806 ft 273 kts 144°
2026-05-06 01:32 -4.35040 15.37914 7497 ft 278 kts 143°
2026-05-06 01:33 -4.36597 15.39091 8180 ft 282 kts 143°
2026-05-06 01:33 -4.38180 15.40289 8877 ft 287 kts 143°
2026-05-06 01:33 -4.39803 15.41479 9571 ft 291 kts 147°
2026-05-06 01:33 -4.41523 15.42576 10213 ft 297 kts 148°
2026-05-06 01:34 -4.43340 15.43682 10522 ft 315 kts 149°
2026-05-06 01:34 -4.45281 15.44827 10772 ft 333 kts 150°
2026-05-06 01:34 -4.47333 15.46020 11011 ft 349 kts 150°
2026-05-06 01:34 -4.49484 15.47265 11264 ft 364 kts 150°
2026-05-06 01:35 -4.51706 15.48552 11675 ft 372 kts 150°
2026-05-06 01:35 -4.53964 15.49863 12179 ft 377 kts 150°
2026-05-06 01:35 -4.56243 15.51190 12698 ft 381 kts 150°
2026-05-06 01:35 -4.58513 15.52515 13235 ft 385 kts 150°
2026-05-06 01:36 -4.60835 15.53871 13771 ft 388 kts 150°
2026-05-06 01:36 -4.63179 15.55241 14259 ft 391 kts 150°
2026-05-06 01:36 -4.65540 15.56621 14748 ft 394 kts 150°
2026-05-06 01:36 -4.67916 15.58010 15237 ft 397 kts 150°
2026-05-06 01:37 -4.70314 15.59411 15743 ft 400 kts 150°
2026-05-06 01:37 -4.72732 15.60824 16238 ft 402 kts 150°
2026-05-06 01:37 -4.75158 15.62242 16750 ft 405 kts 150°
2026-05-06 01:37 -4.77603 15.63670 17261 ft 408 kts 149°
2026-05-06 01:38 -4.80062 15.65108 17789 ft 410 kts 149°
2026-05-06 01:38 -4.82510 15.66539 18257 ft 414 kts 149°
2026-05-06 01:38 -4.85013 15.68002 18673 ft 418 kts 149°
2026-05-06 01:38 -4.87530 15.69473 19105 ft 421 kts 149°
2026-05-06 01:39 -4.90069 15.70957 19547 ft 424 kts 149°
2026-05-06 01:39 -4.92627 15.72453 19963 ft 427 kts 149°
2026-05-06 01:39 -4.95197 15.73956 20404 ft 430 kts 149°
2026-05-06 01:39 -4.97792 15.75474 20817 ft 433 kts 149°
2026-05-06 01:40 -5.00400 15.76999 21240 ft 435 kts 149°
2026-05-06 01:40 -5.03026 15.78535 21625 ft 438 kts 149°
2026-05-06 01:40 -5.05669 15.80081 22046 ft 441 kts 149°
2026-05-06 01:40 -5.08327 15.81636 22435 ft 444 kts 149°
2026-05-06 01:41 -5.11007 15.83204 22833 ft 447 kts 149°
2026-05-06 01:41 -5.13698 15.84779 23216 ft 449 kts 150°
2026-05-06 01:41 -5.16409 15.86366 23581 ft 452 kts 150°
2026-05-06 01:41 -5.19135 15.87961 23887 ft 455 kts 150°
2026-05-06 01:42 -5.21881 15.89568 24229 ft 457 kts 150°
2026-05-06 01:42 -5.24633 15.91179 24545 ft 459 kts 149°
2026-05-06 01:42 -5.27402 15.92800 24878 ft 461 kts 149°
2026-05-06 01:42 -5.30180 15.94426 25213 ft 463 kts 149°
2026-05-06 01:43 -5.32963 15.96056 25512 ft 465 kts 149°
2026-05-06 01:43 -5.35731 15.97677 25827 ft 467 kts 149°
2026-05-06 01:43 -5.38551 15.99329 26143 ft 469 kts 149°
2026-05-06 01:43 -5.41380 16.00987 26473 ft 471 kts 149°
2026-05-06 01:44 -5.44220 16.02650 26783 ft 473 kts 149°
2026-05-06 01:44 -5.47076 16.04323 27084 ft 476 kts 149°
2026-05-06 01:44 -5.49933 16.05998 27389 ft 478 kts 149°
2026-05-06 01:44 -5.52815 16.07686 27691 ft 480 kts 149°
2026-05-06 01:45 -5.55712 16.09368 27978 ft 482 kts 150°
2026-05-06 01:45 -5.58659 16.10997 28250 ft 484 kts 151°
2026-05-06 01:45 -5.61640 16.12596 28559 ft 486 kts 152°
2026-05-06 01:45 -5.64600 16.14171 28841 ft 488 kts 152°
2026-05-06 01:46 -5.67607 16.15774 29123 ft 490 kts 152°
2026-05-06 01:46 -5.70625 16.17391 29401 ft 492 kts 151°
2026-05-06 01:46 -5.73650 16.19021 29666 ft 494 kts 151°
2026-05-06 01:46 -5.76684 16.20663 29935 ft 496 kts 151°